Weather History for Anniston, AL

Change the Weather History Date:

Sunday, February 10, 2013

  Actual Average Record
Temperature  
Mean Temperature 53 °F 46 °F  
Max Temperature 59 °F 57 °F 77 °F (1957)
Min Temperature 47 °F 35 °F 11 °F (1971)
Degree Days  
Heating Degree Days 12    
Month to date heating degree days 184  
Since 1 July heating degree days 1718  
Growing Degree Days 2 (Base 50)    
Moisture  
Dew Point 47 °F    
Average Humidity 71    
Maximum Humidity 100    
Minimum Humidity 41    
Precipitation  
Precipitation 1.50 in 0.17 in 3.07 in (1981)
Month to date precipitation 1.81 1.75  
Year to date precipitation 9.79 6.27  
Sea Level Pressure  
Sea Level Pressure 30.10 in    
Wind  
Wind Speed 8 mph (ENE)    
Max Wind Speed 23 mph    
Max Gust Speed 37 mph    
Visibility 7 miles    
Events Fog , Rain , Thunderstorm    
T = Trace of Precipitation, MM = Missing Value Source: NWS Daily Summary

Daily Weather History Graph

Daily Weather History Graph

Search for Another Location

Airport:

Trip Planner

Search our weather history database for the weather conditions in past years. The results will help you decide how hot, cold, wet, or windy it might be!

Date:

Astronomy

Feb. 10, 2013 Rise Set
Actual Time 6:32 AM CST 5:23 PM CST
Civil Twilight 6:06 AM CST 5:49 PM CST
Nautical Twilight 5:37 AM CST 6:18 PM CST
Astronomical Twilight 5:08 AM CST 6:47 PM CST
Moon 6:25 AM CST (2/10) 6:08 PM CST (2/10)
Length of Visible Light 11h 42m
Length of Day
10h 51m
New Moon, 0% of the Moon is Illuminated
Feb 10
New Moon
Feb 17
First Quarter
Feb 25
Full
Mar 4
Last Quarter
Mar 11
New

Hourly Weather History & Observations

Time (CST) Temp. Dew Point Humidity Pressure Visibility Wind Dir Wind Speed Gust Speed Precip Events Conditions
12:53 AM 48.9 °F 34.0 °F 56% 30.21 in 10.0 mi NE 4.6 mph - N/A   Clear
1:53 AM 48.9 °F 34.0 °F 56% 30.22 in 10.0 mi NE 6.9 mph - N/A   Clear
2:53 AM 48.0 °F 33.1 °F 56% 30.21 in 10.0 mi NNE 4.6 mph - N/A   Clear
3:53 AM 50.0 °F 30.9 °F 48% 30.22 in 10.0 mi East 9.2 mph - N/A   Clear
4:53 AM 50.0 °F 28.9 °F 44% 30.20 in 10.0 mi East 9.2 mph - N/A   Clear
5:53 AM 48.9 °F 28.0 °F 44% 30.22 in 10.0 mi ENE 5.8 mph - N/A   Clear
7:53 AM 51.1 °F 28.9 °F 43% 30.22 in 10.0 mi ENE 8.1 mph - N/A   Mostly Cloudy
8:53 AM 54.0 °F 30.0 °F 40% 30.21 in 10.0 mi NE 8.1 mph - N/A   Partly Cloudy
9:53 AM 57.0 °F 39.9 °F 53% 30.20 in 10.0 mi East 11.5 mph 18.4 mph N/A   Mostly Cloudy
10:53 AM 57.9 °F 42.1 °F 56% 30.14 in 10.0 mi East 8.1 mph 23.0 mph N/A   Overcast
11:53 AM 55.9 °F 48.0 °F 75% 30.12 in 6.0 mi East 5.8 mph - 0.02 in Rain Light Rain
12:00 PM 57.2 °F 48.2 °F 72% 30.11 in 10.0 mi ESE 6.9 mph - 0.00 in   Overcast
12:22 PM 57.2 °F 48.2 °F 72% 30.10 in 10.0 mi Variable 3.5 mph - 0.00 in   Overcast
12:53 PM 57.9 °F 48.9 °F 72% 30.07 in 10.0 mi ESE 8.1 mph - 0.01 in Rain Light Rain
1:53 PM 57.9 °F 50.0 °F 75% 30.04 in 4.0 mi ESE 9.2 mph 17.3 mph 0.03 in Rain Light Rain
2:27 PM 57.2 °F 51.8 °F 82% 29.99 in 10.0 mi East 9.2 mph - 0.00 in   Overcast
2:50 PM 57.2 °F 51.8 °F 82% 30.00 in 10.0 mi Calm Calm - 0.00 in Thunderstorm Overcast
2:53 PM 57.9 °F 52.0 °F 81% 30.00 in 10.0 mi Variable 4.6 mph - 0.00 in Rain , Thunderstorm Light Thunderstorms and Rain
3:03 PM 57.2 °F 51.8 °F 82% 30.00 in 1.5 mi Calm Calm - 0.13 in Rain , Thunderstorm Thunderstorms and Rain
3:16 PM 55.4 °F 53.6 °F 94% 30.02 in 3.0 mi NNW 8.1 mph - 0.20 in Rain , Thunderstorm Light Rain
3:27 PM 55.4 °F 53.6 °F 94% 30.00 in 9.0 mi NE 8.1 mph - 0.20 in Thunderstorm Overcast
3:38 PM 57.2 °F 53.6 °F 88% 30.03 in 1.8 mi Variable 5.8 mph - 0.28 in Rain , Thunderstorm Rain
3:43 PM 57.2 °F 53.6 °F 88% 30.04 in 3.0 mi North 5.8 mph - 0.29 in Rain , Thunderstorm Light Rain
3:51 PM 57.2 °F 53.6 °F 88% 30.01 in 3.0 mi East 11.5 mph - 0.32 in Rain Rain
3:53 PM 57.0 °F 53.1 °F 87% 30.01 in 3.0 mi East 11.5 mph - 0.32 in Rain Light Rain
4:03 PM 57.2 °F 53.6 °F 88% 30.09 in 2.5 mi WNW 13.8 mph 20.7 mph 0.07 in Rain , Thunderstorm Thunderstorms and Rain
4:09 PM 55.4 °F 53.6 °F 94% 30.10 in 0.8 mi NW 12.7 mph 36.8 mph 0.32 in Rain , Thunderstorm Heavy Thunderstorms and Rain
4:17 PM 55.4 °F 53.6 °F 94% 30.11 in 0.5 mi NW 10.4 mph 25.3 mph 0.48 in Fog , Rain , Thunderstorm Heavy Thunderstorms and Rain
4:20 PM 55.4 °F 53.6 °F 94% 30.11 in 1.0 mi Variable 5.8 mph 21.9 mph 0.49 in Rain , Thunderstorm Thunderstorms and Rain
4:27 PM 57.2 °F 53.6 °F 88% 30.10 in 3.0 mi Variable 4.6 mph - 0.51 in Rain , Thunderstorm Light Thunderstorms and Rain
4:41 PM 55.4 °F 53.6 °F 94% 30.08 in 4.0 mi ENE 9.2 mph - 0.55 in Rain Light Rain
4:53 PM 55.0 °F 53.1 °F 93% 30.09 in 4.0 mi East 4.6 mph - 0.59 in Rain Light Rain
5:53 PM 54.0 °F 53.1 °F 97% 30.12 in 6.0 mi East 3.5 mph - 0.16 in Rain Rain
6:53 PM 54.0 °F 53.1 °F 97% 30.10 in 6.0 mi East 8.1 mph - 0.18 in Rain Light Rain
7:53 PM 55.0 °F 54.0 °F 96% 30.08 in 10.0 mi Variable 3.5 mph - 0.09 in Rain Light Rain
8:53 PM 55.9 °F 54.0 °F 93% 30.04 in 10.0 mi NNE 9.2 mph - 0.01 in   Overcast
9:53 PM 57.0 °F 54.0 °F 89% 30.05 in 8.0 mi East 11.5 mph 17.3 mph 0.02 in Rain Light Rain
10:53 PM 55.9 °F 54.0 °F 93% 30.04 in 9.0 mi East 11.5 mph - 0.04 in Rain Light Rain
11:53 PM 55.9 °F 53.1 °F 90% 30.04 in 9.0 mi ENE 9.2 mph - 0.02 in Rain Light Rain